Weather History for KLWT - October, 2013

Change the Weather History Date:

Tuesday, October 29, 2013

  Actual Average Record
Temperature  
Mean Temperature 25 °F 39 °F  
Max Temperature 31 °F 51 °F 79 °F (1968)
Min Temperature 19 °F 27 °F -7 °F (1991)
Degree Days  
Heating Degree Days 40 26  
Month to date heating degree days 682 608  
Since 1 July heating degree days 945 1085  
Cooling Degree Days 0 0  
Month to date cooling degree days 0 0  
Year to date cooling degree days 277 210  
Moisture  
Dew Point 21 °F    
Average Humidity 89    
Maximum Humidity 100    
Minimum Humidity 78    
Precipitation  
Precipitation T in 0.03 in 0.72 in (1929)
Month to date precipitation 1.07 1.08  
Year to date precipitation 21.48 15.43  
Snow  
Snow 0.00 in - - ()
Snow Depth 1.00 in    
Sea Level Pressure  
Sea Level Pressure 30.01 in    
Wind  
Wind Speed 4 mph (ESE)    
Max Wind Speed 12 mph    
Max Gust Speed 16 mph    
Visibility 9 miles    
Events Fog , Snow    
T = Trace of Precipitation, MM = Missing Value Source: NWS Daily Summary

Daily Weather History Graph

Daily Weather History Graph

Search for Another Location

Airport or City:

Trip Planner

Search our weather history database for the weather conditions in past years. The results will help you decide how hot, cold, wet, or windy it might be!

Date:

Astronomy

Oct. 29, 2013 Rise Set
Actual Time 7:56 AM MDT 6:05 PM MDT
Civil Twilight 7:25 AM MDT 6:37 PM MDT
Nautical Twilight 6:49 AM MDT 7:13 PM MDT
Astronomical Twilight 6:13 AM MDT 7:48 PM MDT
Moon 2:31 AM MDT (10/29) 3:37 PM MDT (10/29)
Length of Visible Light 11h 12m
Length of Day
10h 09m
Waning Crescent, 24% of the Moon is Illuminated
Oct 29
Waning Crescent
Nov 3
New
Nov 9
First Quarter
Nov 17
Full
Nov 25
Last Quarter

Hourly Weather History & Observations

Time (MDT) Temp. Windchill Dew Point Humidity Pressure Visibility Wind Dir Wind Speed Gust Speed Precip Events Conditions
12:08 AM 19.4 °F 9.5 °F 17.6 °F 93% 30.13 in 10.0 mi ESE 8.1 mph - N/A   Overcast
12:52 AM 21.2 °F 14.9 °F 19.4 °F 93% 30.11 in 10.0 mi ESE 4.6 mph - N/A   Overcast
12:54 AM 21.0 °F 14.6 °F 19.0 °F 92% 30.25 in 10.0 mi ESE 4.6 mph - N/A   Overcast
1:04 AM 19.4 °F 11.5 °F 17.6 °F 93% 30.10 in 10.0 mi ESE 5.8 mph - N/A   Overcast
1:26 AM 19.4 °F 11.5 °F 19.4 °F 100% 30.10 in 7.0 mi ESE 5.8 mph - 0.00 in Snow Light Snow
1:54 AM 19.9 °F 14.9 °F 18.0 °F 92% 30.24 in 9.0 mi East 3.5 mph - 0.00 in   Overcast
2:54 AM 19.9 °F - 18.0 °F 92% 30.21 in 10.0 mi Calm Calm - 0.00 in   Overcast
4:06 AM 19.4 °F 10.4 °F 17.6 °F 93% 30.03 in 10.0 mi ESE 6.9 mph - N/A   Overcast
4:15 AM 19.4 °F 11.5 °F 17.6 °F 93% 30.03 in 10.0 mi ESE 5.8 mph - N/A   Overcast
4:23 AM 19.4 °F 9.5 °F 17.6 °F 93% 30.02 in 10.0 mi SE 8.1 mph - N/A   Overcast
4:54 AM 19.9 °F 12.1 °F 18.0 °F 92% 30.17 in 10.0 mi East 5.8 mph - N/A   Overcast
5:11 AM 19.4 °F 12.8 °F 19.4 °F 100% 30.02 in 10.0 mi East 4.6 mph - N/A   Overcast
5:37 AM 19.4 °F 12.8 °F 19.4 °F 100% 30.03 in 10.0 mi ENE 4.6 mph - N/A   Overcast
5:54 AM 19.9 °F 13.4 °F 18.0 °F 92% 30.19 in 10.0 mi NNE 4.6 mph - N/A   Overcast
6:23 AM 19.4 °F 14.3 °F 17.6 °F 93% 30.03 in 10.0 mi NE 3.5 mph - N/A   Overcast
6:54 AM 21.0 °F - 19.0 °F 92% 30.17 in 10.0 mi Calm Calm - N/A   Overcast
7:05 AM 19.4 °F 12.8 °F 19.4 °F 100% 30.01 in 10.0 mi ESE 4.6 mph - N/A   Overcast
7:26 AM 21.2 °F 16.4 °F 19.4 °F 93% 30.00 in 10.0 mi ESE 3.5 mph - N/A   Overcast
7:54 AM 21.0 °F - 19.0 °F 92% 30.15 in 10.0 mi Calm Calm - N/A   Overcast
8:25 AM 21.2 °F - 19.4 °F 93% 30.00 in 10.0 mi Calm Calm - N/A   Overcast
8:54 AM 21.9 °F - 19.0 °F 89% 30.14 in 10.0 mi Calm Calm - N/A   Overcast
9:54 AM 21.9 °F 14.5 °F 19.0 °F 89% 30.14 in 10.0 mi East 5.8 mph - N/A   Overcast
10:39 AM 24.8 °F 17.9 °F 19.4 °F 80% 29.97 in 10.0 mi ESE 5.8 mph - N/A   Overcast
10:54 AM 24.1 °F 16.0 °F 19.0 °F 81% 30.10 in 10.0 mi East 6.9 mph - N/A   Overcast
11:54 AM 26.1 °F 16.2 °F 21.0 °F 81% 30.08 in 10.0 mi East 10.4 mph - N/A   Overcast
12:18 PM 26.6 °F 19.1 °F 21.2 °F 80% 29.94 in 10.0 mi ESE 6.9 mph - N/A   Overcast
12:54 PM 27.0 °F 19.5 °F 21.9 °F 81% 30.04 in 10.0 mi East 6.9 mph - N/A   Overcast
1:54 PM 28.0 °F - 24.1 °F 85% 30.03 in 10.0 mi Calm Calm - N/A   Overcast
2:54 PM 28.9 °F - 24.1 °F 82% 30.01 in 10.0 mi Calm Calm - N/A   Overcast
3:54 PM 28.9 °F 22.8 °F 24.1 °F 82% 30.00 in 10.0 mi SE 5.8 mph - N/A   Overcast
4:54 PM 30.0 °F - 24.1 °F 79% 29.99 in 10.0 mi Calm Calm - N/A   Overcast
5:54 PM 28.0 °F 21.7 °F 25.0 °F 88% 29.99 in 10.0 mi East 5.8 mph - N/A   Overcast
6:41 PM 26.6 °F 19.1 °F 24.8 °F 93% 29.86 in 10.0 mi SE 6.9 mph - N/A   Mostly Cloudy
6:54 PM 26.1 °F 19.4 °F 24.1 °F 92% 29.98 in 10.0 mi ESE 5.8 mph - N/A   Mostly Cloudy
7:13 PM 24.8 °F 20.5 °F 24.8 °F 100% 29.86 in 10.0 mi ESE 3.5 mph - N/A   Scattered Clouds
7:54 PM 25.0 °F 19.3 °F 23.0 °F 92% 29.98 in 10.0 mi East 4.6 mph - N/A   Partly Cloudy
8:54 PM 21.9 °F - 21.0 °F 96% 29.97 in 10.0 mi Calm Calm - N/A   Clear
9:02 PM 23.0 °F - 21.2 °F 93% 29.84 in 10.0 mi Calm Calm - N/A   Scattered Clouds
9:14 PM 23.0 °F 18.4 °F 21.2 °F 93% 29.83 in 10.0 mi East 3.5 mph - N/A   Mostly Cloudy
9:34 PM 24.8 °F 20.5 °F 24.8 °F 100% 29.83 in 2.5 mi East 3.5 mph - N/A   Overcast
9:47 PM 24.8 °F 19.1 °F 24.8 °F 100% 29.83 in 0.8 mi SE 4.6 mph - N/A   Overcast
9:54 PM 24.1 °F 17.0 °F 24.1 °F 100% 29.95 in 0.5 mi ESE 5.8 mph - N/A Fog Light Freezing Fog
10:03 PM 24.8 °F 17.9 °F 24.8 °F 100% 29.83 in 0.5 mi ESE 5.8 mph - N/A Fog Light Freezing Fog
10:54 PM 21.9 °F 15.7 °F 21.9 °F 100% 29.95 in 2.5 mi ESE 4.6 mph - N/A   Overcast
11:01 PM 21.2 °F 14.9 °F 21.2 °F 100% 29.82 in 10.0 mi SE 4.6 mph - N/A   Mostly Cloudy
11:11 PM 21.2 °F 14.9 °F 19.4 °F 93% 29.82 in 10.0 mi SE 4.6 mph - N/A   Scattered Clouds
11:54 PM 19.0 °F 12.3 °F 18.0 °F 96% 29.93 in 10.0 mi SE 4.6 mph - N/A   Clear